INTELSAT 7 (IS-7)

Last updated on May 29, 2016, 1:45 a.m. UTC

1 25473U 98052A   16149.53994040 -.00000182  00000-0  00000+0 0  9991
2 25473   2.4582  75.9188 0005852  69.5883 290.0482  0.98213367 64814
UTC
Height (km)
Latitude
Longitude
Inclination
Orbital Period
UTC large
Height (km)
Speed (km/s)
/
Latitude / Longitude
Inclination (degrees)
Orbital Period (minutes)
Azimuth
Elevation
Range (km)
Doppler Factor
iOS Compass Heading
iOS Angle

Next 30 passes for location: Hong Kong

Rise time Rise Azimuth (degrees) Set time Set Azimuth (degrees) Duration Max altitude (degrees)

No matching passes for this satellites